Regional Weather Roundup
Issued by NWS Little Rock, AR

Home | Current Version | Previous Version | Graphics & Text | Print | Product List | Glossary On
Versions: 1 2 3 4 5 6 7 8 9 10 11 12 13 14 15 16 17 18 19 20 21 22 23 24 25 26 27
000
ASUS44 KLZK 190405
RWRLZK

WEATHER ROUNDUP FOR ARKANSAS
NATIONAL WEATHER SERVICE LITTLE ROCK AR
1100 PM CDT FRI APR 18 2014

NOTE: "FAIR" INDICATES FEW OR NO CLOUDS BELOW 12,000 FEET WITH NO
SIGNIFICANT WEATHER AND/OR OBSTRUCTIONS TO VISIBILITY.

ARZ001-003-010-029-190500-
NORTHWEST ARKANSAS

CITY           SKY/WX    TMP DP  RH WIND       PRES   REMARKS
FAYETTEVILLE   CLOUDY    55  46  71 CALM      30.20R
FORT SMITH     CLEAR     62  43  49 CALM      30.18R
HARRISON       CLEAR     56  41  57 SE5       30.21R
BENTONVILLE    CLEAR     57  39  51 S6        30.20R
ROGERS         CLEAR     60  42  51 SE7       30.21R
SILOAM SPGS    CLEAR     59  39  47 S5        30.20S
HIGHFILL       CLEAR     59  43  55 S5        30.19R
$$

ARZ004-005-016-190500-
NORTH CENTRAL ARKANSAS

CITY           SKY/WX    TMP DP  RH WIND       PRES   REMARKS
BATESVILLE     CLEAR     55  46  71 W3        30.20R
FLIPPIN        CLEAR     57  37  47 SW3       30.21R
MTN HOME       CLEAR     59  40  49 CALM      30.20R
$$

ARZ040-041-190500-
WEST CENTRAL ARKANSAS

CITY           SKY/WX    TMP DP  RH WIND       PRES   REMARKS
MENA           CLEAR     52  46  82 CALM      30.21R
MOUNT IDA      CLEAR     53  49  86 CALM      30.19R
$$

ARZ009-017-025-026-028-190500-
NORTHEAST ARKANSAS

CITY           SKY/WX    TMP DP  RH WIND       PRES   REMARKS
CORNING        FAIR      59  48  67 N6        30.21R
JONESBORO      CLEAR     55  48  77 CALM      30.19S
NEWPORT        CLEAR     59  50  72 CALM      30.20S
WALNUT RIDGE   CLEAR     59  48  67 NE3       30.20R
BLYTHEVILLE    PTCLDY    57  53  86 N3        30.19S
$$

ARZ022-023-033-042-044-190500-
CENTRAL ARKANSAS

CITY           SKY/WX    TMP DP  RH WIND       PRES   REMARKS
LITTLE ROCK    CLEAR     59  48  67 CALM      30.19R
N LITTLE ROCK  CLEAR     59  50  71 NE2       30.19R
JACKSONVILLE   CLEAR     54  49  82 W2        30.20R
SEARCY         CLEAR     54  50  86 CALM      30.20R
HOT SPRINGS    CLEAR     57  47  69 CALM      30.20R
RUSSELLVILLE   CLEAR     55  48  77 CALM      30.20R
CLINTON        FAIR      52  48  87 CALM      30.22R
$$

ARZ036-190500-
EAST ARKANSAS

CITY           SKY/WX    TMP DP  RH WIND       PRES   REMARKS
WEST MEMPHIS   CLOUDY    61  54  77 CALM      30.18R HAZE
$$

ARZ050-053-066-070-073-190500-
SOUTHWEST ARKANSAS

CITY           SKY/WX    TMP DP  RH WIND       PRES   REMARKS
ARKADELPHIA    FAIR      56  52  86 CALM      30.20S
CAMDEN         CLEAR     55  54  94 MISG      30.19S
TEXARKANA      CLEAR     61  49  64 SE3       30.18S
EL DORADO      CLEAR     56  53  90 CALM      30.19S
DE QUEEN       CLEAR     53  50  89 CALM      30.17S
$$

ARZ056-057-069-190500-
SOUTHEAST ARKANSAS

CITY           SKY/WX    TMP DP  RH WIND       PRES   REMARKS
PINE BLUFF     CLEAR     56  51  84 CALM      30.18S
STUTTGART      CLEAR     59  54  82 NE5       30.19R
MONTICELLO     MOCLDY    59  52  77 CALM      30.18R

$$





USA.gov is the U.S. government's official web portal to all federal, state and local government web resources and services.